Lapse_Rate
5.2 5.3 5.4 5.6 5.6 5.5 5.5 5.5 5.4 5.4 5.6 5.9 6.0 6.2 6.3 6.5 6.6 6.3 6.7 6.9 6.5 6.4 6.1 6.2 6.7 6.8 7.0 6.7 6.8 7.1 7.1 7.1 7.2 7.3 7.2 6.7 6.1 6.2 6.0 5.8 5.8 5.8 6.3 5.4 5.6 5.6 5.6 6.2 6.3 6.2 6.5 7.3 7.5 7.2
5.3 5.4 5.5 5.6 5.6 5.6 5.5 5.5 5.4 5.4 5.6 5.9 6.1 6.4 6.2 6.4 6.3 6.4 6.6 6.6 6.8 6.6 6.2 6.1 6.3 6.7 6.7 7.0 7.0 6.8 7.1 7.1 7.2 7.2 6.8 6.7 6.2 6.1 6.1 5.9 6.1 6.0 6.2 6.3 6.7 6.5 5.9 6.2 5.9 6.1 6.2 6.7 8.2 8.4
5.5 5.4 5.6 5.6 5.7 5.6 5.6 5.5 5.5 5.5 5.7 6.0 6.4 6.5 6.3 6.4 6.4 6.6 6.8 6.7 6.8 6.7 6.5 6.6 6.5 6.7 6.8 6.9 7.0 6.8 6.8 6.9 6.9 7.1 7.0 6.9 6.3 6.3 6.0 5.9 6.2 6.8 6.2 6.5 7.0 6.4 5.9 5.8 5.2 5.8 5.7 7.0 7.8 8.4
5.6 5.6 5.6 5.6 5.7 5.6 5.7 5.6 5.6 5.5 5.8 6.1 6.6 6.5 6.4 6.6 6.5 6.8 6.8 6.9 6.9 7.1 7.0 6.9 6.9 6.9 6.8 6.7 6.7 6.9 6.9 6.9 6.9 6.8 6.8 6.6 6.2 6.1 6.1 6.2 6.4 6.8 7.7 7.0 6.8 6.9 6.4 6.7 6.2 5.8 5.8 6.4 7.3 7.9
5.6 5.7 5.7 5.7 5.7 5.7 5.7 5.6 5.6 5.6 5.9 6.3 6.6 6.5 6.6 6.7 6.7 6.7 7.0 7.1 7.1 7.3 7.3 7.3 7.0 6.9 6.9 6.9 7.0 6.9 6.9 6.8 6.8 6.6 6.5 6.4 6.3 6.1 6.4 7.0 6.2 7.3 7.3 7.4 6.6 6.8 7.1 7.8 7.5 5.6 5.8 6.1 6.7 7.4
5.6 5.6 5.8 5.8 5.9 5.9 5.9 5.7 5.7 5.7 6.0 6.4 6.7 6.6 6.8 7.0 7.0 7.0 7.1 7.2 7.3 7.3 7.4 7.3 7.2 7.1 7.1 7.1 7.0 6.9 6.8 6.7 6.6 6.6 6.5 6.3 6.2 6.7 6.5 6.7 7.2 8.2 8.2 7.2 7.5 7.3 7.3 6.8 7.1 6.4 5.8 6.4 6.5 7.2
5.6 5.7 6.0 6.0 5.9 5.9 5.9 5.8 5.7 5.7 6.1 6.5 6.8 6.7 6.9 7.1 7.0 7.1 7.2 7.4 7.6 7.7 7.7 7.6 7.6 7.6 7.3 7.3 7.2 7.2 7.1 7.1 7.2 7.0 6.8 6.9 7.1 7.2 6.8 5.7 7.3 8.3 8.3 7.3 7.2 7.3 7.2 7.2 6.7 7.0 6.8 6.8 6.2 7.3
5.6 5.7 6.1 6.0 6.1 6.0 6.0 5.8 5.8 5.8 6.3 6.7 6.8 6.7 6.7 6.9 7.1 7.1 7.0 7.2 7.5 7.7 7.6 7.5 7.5 7.7 7.6 7.5 7.4 7.0 6.9 7.0 6.9 6.7 6.4 6.5 6.6 6.5 6.6 6.6 7.8 8.1 8.2 7.2 6.9 7.2 6.7 6.6 6.3 6.1 6.4 6.2 7.1 7.3
5.6 5.8 6.1 6.1 6.2 6.2 6.0 5.9 5.9 6.0 6.3 6.8 6.9 6.7 6.6 6.6 6.7 6.8 7.1 7.4 7.4 7.3 7.4 7.4 7.4 7.5 7.1 6.8 6.7 6.8 6.6 6.5 6.4 6.3 6.5 6.3 6.3 6.4 6.9 8.0 8.6 8.6 8.1 8.3 7.4 7.0 6.3 6.1 5.7 5.9 5.9 6.3 6.3 6.2
5.6 5.9 6.2 6.2 6.3 6.2 6.0 6.0 5.9 6.0 6.4 7.0 7.0 6.8 6.7 6.7 6.7 6.8 6.9 6.9 7.0 7.1 7.0 7.1 6.9 6.7 6.6 6.5 6.5 6.5 6.5 6.6 6.5 6.4 6.2 6.1 6.1 6.8 7.3 7.4 7.7 8.1 7.9 7.7 7.7 7.3 6.5 6.9 5.9 5.5 5.7 5.8 5.8 5.6
5.7 6.0 6.3 6.2 6.3 6.2 6.0 6.0 6.0 6.1 6.4 6.9 7.1 6.9 6.9 6.7 6.8 6.8 6.9 7.0 6.8 6.9 6.8 6.9 6.7 6.4 6.3 6.3 6.4 6.5 6.5 6.5 6.3 6.4 6.3 6.1 6.5 7.3 7.5 7.4 7.5 7.9 7.9 7.9 8.1 7.0 7.2 7.4 6.8 6.4 6.1 6.1 6.3 6.0
5.7 6.0 6.3 6.2 6.3 6.2 6.0 6.0 6.1 6.2 6.5 6.9 7.1 7.2 7.1 7.0 6.8 6.8 6.7 6.7 6.7 6.7 6.7 6.6 6.3 6.1 6.0 6.1 6.3 6.3 6.3 6.3 6.3 6.2 6.1 6.1 6.8 6.9 7.2 7.6 7.7 7.5 7.6 7.6 7.3 6.9 6.8 6.4 6.7 6.3 6.4 6.3 6.4 6.1
5.9 6.1 6.4 6.3 6.3 6.3 6.0 6.0 6.2 6.2 6.5 7.0 7.3 7.4 7.3 7.2 7.1 7.2 7.2 7.0 6.8 6.7 6.7 6.5 6.2 6.0 6.1 6.1 6.2 6.3 6.4 6.2 6.2 6.5 6.4 6.4 6.3 6.4 6.6 6.9 7.3 7.5 7.4 7.4 7.3 7.0 7.1 7.1 6.2 6.4 6.2 5.8 5.3 5.0
6.0 6.2 6.4 6.4 6.3 6.4 6.2 6.0 6.1 6.2 6.4 6.9 7.3 7.4 7.4 7.3 7.3 7.3 7.2 7.1 7.1 6.9 6.7 6.6 6.4 6.2 6.2 6.4 6.3 6.4 6.4 6.3 6.2 6.3 6.5 6.5 6.1 6.3 6.3 6.6 7.0 7.1 7.2 7.2 7.2 6.9 7.0 6.9 6.9 6.1 5.2 4.5 4.8 5.3
6.1 6.2 6.5 6.4 6.3 6.4 6.3 6.1 6.1 6.1 6.3 6.6 7.1 7.3 7.5 7.5 7.5 7.4 7.2 7.1 7.1 7.0 7.0 7.0 6.8 6.8 6.7 6.7 6.6 6.6 6.6 6.6 6.6 6.7 6.4 6.1 6.1 6.1 6.1 6.7 6.5 6.6 6.7 6.5 6.5 6.4 6.0 5.1 5.1 5.1 5.0 5.2 5.1 4.6
6.1 6.2 6.5 6.5 6.3 6.4 6.3 6.1 6.1 6.1 6.1 6.5 7.0 7.5 7.7 7.8 7.8 7.6 7.4 7.2 7.0 7.0 7.0 6.9 7.0 7.1 7.1 7.0 7.0 7.0 6.9 6.9 6.8 6.7 6.3 6.1 6.1 6.2 6.0 6.2 6.1 6.1 6.1 5.8 5.4 5.2 5.2 5.3 5.2 5.2 5.0 4.7 4.9 5.0
6.0 6.1 6.4 6.4 6.3 6.3 6.3 6.1 6.0 6.0 6.0 6.3 6.9 7.4 7.6 7.9 7.8 7.6 7.5 7.6 7.4 7.2 7.1 7.2 7.3 7.3 7.4 7.4 7.5 7.3 7.2 7.1 7.2 7.0 6.4 6.2 6.3 6.2 6.2 6.2 6.0 5.8 5.5 5.5 5.5 5.7 5.4 5.1 5.1 4.8 4.9 5.0 5.1 5.2
6.1 6.1 6.4 6.4 6.3 6.3 6.3 6.0 5.9 5.9 5.9 6.3 6.5 6.7 7.0 7.5 7.8 8.0 7.7 7.8 7.8 7.7 7.7 7.8 7.8 7.7 7.8 7.7 7.7 7.6 7.4 7.4 7.3 7.1 6.8 6.4 6.2 6.3 6.2 6.2 6.1 5.9 6.0 5.7 5.7 5.4 5.6 5.5 5.6 5.3 5.4 5.4 5.6 5.6
6.1 6.0 6.3 6.3 6.2 6.2 6.1 6.0 5.8 5.9 5.8 6.0 6.2 6.4 6.5 6.8 7.2 7.5 7.8 7.8 7.8 7.7 7.9 8.0 7.9 7.8 7.7 7.7 7.7 7.7 7.2 7.2 7.3 7.2 7.1 7.1 6.8 6.7 6.8 6.8 7.0 6.9 6.6 6.7 6.4 6.1 6.0 6.0 5.9 5.8 5.8 5.9 6.0 6.1
6.0 6.0 6.2 6.1 6.1 6.1 6.2 6.1 5.9 5.8 5.6 5.7 5.8 6.1 6.1 6.1 6.4 6.9 7.3 7.6 7.7 7.6 7.7 7.8 7.6 7.6 7.7 8.0 7.8 7.8 7.4 7.5 7.3 7.1 7.2 7.1 7.0 7.0 6.9 7.0 7.3 7.3 7.3 7.3 7.5 7.4 7.2 7.3 7.0 6.9 6.8 6.7 6.6 6.7
5.9 6.0 6.1 6.0 6.1 6.0 6.2 6.2 6.0 5.7 5.6 5.6 5.6 5.7 5.7 5.9 6.2 6.4 6.7 7.1 7.2 7.4 7.5 7.8 7.9 7.8 7.9 8.0 7.9 7.8 8.0 8.0 7.6 7.1 7.1 7.2 7.2 7.2 7.2 7.1 7.1 7.2 7.1 7.0 7.3 7.3 7.4 7.4 7.4 7.5 7.7 7.8 8.1 8.3
5.9 5.9 5.9 5.9 5.9 6.0 6.2 6.2 6.0 5.7 5.6 5.5 5.6 5.6 5.5 5.6 5.8 6.0 6.2 6.4 6.7 7.2 7.4 7.5 7.5 7.5 7.7 7.8 7.8 7.8 8.0 8.1 7.9 7.7 7.7 7.8 7.8 7.6 7.6 7.5 7.5 7.5 7.5 7.5 7.4 7.2 7.2 7.4 7.6 7.7 7.8 7.9 8.1 8.1
5.7 5.8 5.8 5.8 5.8 6.0 6.1 6.0 5.8 5.6 5.6 5.5 5.4 5.4 5.4 5.5 5.7 5.7 5.9 6.1 6.3 6.5 6.9 7.3 7.4 7.4 7.5 7.5 7.3 7.7 7.7 7.8 7.9 7.8 7.8 7.7 7.7 7.6 7.5 7.5 7.5 7.5 7.6 7.7 7.8 7.9 7.9 8.0 7.9 8.0 8.0 8.1 8.2 8.2
5.5 5.3 5.8 5.9 5.8 5.8 5.9 5.8 5.6 5.5 5.5 5.4 5.4 5.3 5.3 5.2 5.4 5.5 5.6 5.7 5.8 6.1 6.4 6.8 7.1 7.2 7.3 7.5 7.4 7.5 7.3 7.7 7.9 7.8 7.9 8.0 7.9 7.8 7.7 7.5 7.5 7.5 7.6 7.6 7.6 7.7 7.7 7.8 7.8 7.8 7.8 7.9 8.1 8.0
5.2 5.3 5.7 5.7 5.7 5.9 5.9 5.9 5.8 5.6 5.5 5.3 5.2 5.2 5.0 4.9 5.0 5.1 5.4 5.5 5.7 6.0 6.2 6.4 6.7 7.0 7.2 7.1 7.0 7.2 7.2 7.1 7.5 7.7 7.7 7.8 7.9 7.9 7.8 7.7 7.7 7.8 7.8 7.8 7.9 8.0 8.0 7.9 7.9 7.9 7.9 7.9 7.8 7.7
5.2 5.2 5.4 5.3 5.5 5.7 6.0 5.9 5.9 5.7 5.5 5.3 5.2 5.0 4.8 4.7 4.8 4.8 4.9 5.0 5.2 5.5 5.8 6.2 6.6 6.8 7.0 7.1 7.0 7.0 7.2 7.1 7.2 7.2 7.5 7.7 7.8 7.8 7.7 7.7 7.7 7.6 7.6 7.6 7.6 7.7 7.8 7.8 7.8 7.8 7.7 7.7 7.7 7.6
5.0 5.2 5.3 5.4 5.4 5.6 5.8 5.9 5.7 5.6 5.5 5.4 5.1 5.0 4.8 4.7 4.6 4.7 4.7 4.8 5.1 5.5 5.8 6.0 6.1 6.4 6.7 6.9 7.2 7.2 7.2 7.1 7.0 7.1 7.3 7.4 7.7 7.8 7.8 7.8 7.8 7.7 7.6 7.6 7.6 7.6 7.7 7.7 7.7 7.7 7.6 7.5 7.5 7.6
5.0 5.4 5.4 5.4 5.5 5.7 5.8 5.8 5.7 5.7 5.6 5.4 5.3 5.1 4.8 4.7 4.8 4.9 4.9 5.1 5.4 5.7 6.0 6.0 5.8 5.6 5.7 6.0 6.1 6.5 6.9 6.8 6.7 7.0 7.3 7.5 7.6 7.7 7.8 7.8 7.8 7.9 7.9 7.8 7.7 7.6 7.7 7.7 7.7 7.6 7.5 7.4 7.3 7.3
4.9 5.3 5.2 5.2 5.4 5.6 5.7 5.7 5.7 5.7 5.5 5.4 5.2 5.1 4.9 5.0 5.1 5.2 5.3 5.5 5.7 5.9 6.2 6.2 6.0 5.8 5.6 5.6 5.7 5.9 6.1 6.3 6.7 6.8 6.7 7.0 7.3 7.5 7.6 7.7 7.8 7.8 7.8 7.8 7.7 7.6 7.6 7.5 7.5 7.5 7.5 7.4 7.2 7.2
5.0 5.1 5.2 5.4 5.5 5.6 5.7 5.6 5.7 5.6 5.5 5.3 5.2 5.1 5.1 5.1 5.3 5.4 5.5 5.7 5.9 6.1 6.3 6.5 6.3 6.0 5.8 5.7 5.6 5.6 5.7 5.9 6.0 6.1 6.3 6.5 6.6 6.7 7.0 7.2 7.4 7.5 7.6 7.6 7.6 7.5 7.3 7.1 7.1 7.2 7.2 7.2 7.2 7.2
5.0 5.1 5.3 5.4 5.6 5.7 5.7 5.7 5.6 5.4 5.3 5.2 5.2 5.2 5.2 5.2 5.3 5.5 5.6 5.8 6.0 6.2 6.4 6.5 6.3 6.0 5.8 5.7 5.7 5.7 5.7 5.7 5.8 5.9 6.0 6.1 6.3 6.5 6.6 6.8 6.9 6.9 6.9 7.1 7.3 7.2 7.2 7.1 6.9 6.9 6.9 7.0 6.9 6.9
5.2 5.5 5.4 5.6 5.7 5.7 5.7 5.5 5.4 5.3 5.2 5.2 5.2 5.1 5.1 5.2 5.3 5.5 5.6 5.8 6.1 6.4 6.5 6.5 6.3 6.1 6.0 5.8 5.8 5.8 5.8 5.9 5.9 6.0 6.1 6.2 6.3 6.4 6.6 6.9 7.0 7.0 7.0 6.9 6.9 6.9 6.9 6.8 6.8 6.8 6.8 6.8 6.8 6.7
5.2 5.3 5.5 5.6 5.7 5.7 5.6 5.4 5.3 5.3 5.2 5.2 5.2 5.2 5.1 5.1 5.3 5.6 5.7 6.0 6.2 6.4 6.5 6.3 6.1 6.0 6.0 6.0 5.9 5.9 6.0 6.0 6.2 6.2 6.3 6.4 6.6 6.7 6.5 6.7 6.9 6.9 6.9 7.0 6.9 6.8 6.7 6.7 6.6 6.6 6.6 6.6 6.6 6.5
Wind_Speed
24 26 26 26 26 24 24 25 25 25 26 25 27 28 27 26 25 14 4 6 3 3 3 3 2 8 6 11 10 3 8 2 6 7 5 4 3 6 6 12 5 15 8 5 5 9 17 5 11 23 28 26 14 25
22 23 25 25 25 24 24 24 24 24 24 25 27 28 27 26 27 5 2 3 3 2 3 4 2 3 3 10 8 2 4 5 5 3 2 3 2 2 7 9 11 15 15 12 10 7 6 15 18 15 5 21 9 10
21 22 23 24 24 23 24 24 23 22 25 26 27 29 28 26 21 7 2 2 1 2 2 2 3 6 5 5 3 4 1 3 4 4 4 3 6 3 8 10 6 5 15 17 6 8 9 12 15 16 15 8 7 7
22 20 22 22 22 23 23 23 23 24 26 26 27 27 25 25 18 9 2 0 2 1 1 2 2 3 3 5 5 3 5 4 4 2 2 4 3 4 4 6 8 10 6 6 11 16 17 21 22 16 12 6 2 5
22 19 20 21 21 22 22 23 24 24 26 26 28 28 22 26 11 4 0 1 1 2 1 2 2 1 2 4 7 5 5 4 2 2 3 4 3 1 2 1 7 4 9 7 9 18 11 18 14 13 11 6 8 8
21 17 20 19 20 22 22 23 24 25 25 26 28 27 16 17 5 3 3 2 1 1 1 1 2 2 2 4 4 3 3 1 2 3 3 4 4 3 3 9 16 14 14 16 17 6 10 9 10 13 14 3 4 6
19 17 19 18 21 21 22 23 24 25 25 26 28 26 13 8 2 2 3 2 2 0 1 1 2 1 2 2 0 1 3 2 3 2 4 3 3 5 5 16 8 8 13 14 10 7 6 5 3 5 10 11 13 15
19 17 17 17 20 21 22 22 23 25 26 26 26 20 7 2 1 2 2 3 2 1 1 2 2 1 6 3 2 3 3 3 4 3 2 3 3 5 7 12 19 19 15 8 6 2 4 9 7 8 16 16 16 17
19 15 17 18 19 21 22 21 22 24 25 27 22 3 1 1 1 3 3 2 1 0 2 1 2 3 3 2 2 2 2 3 4 5 4 5 5 7 10 19 16 14 17 13 10 13 12 15 11 10 12 15 19 15
19 15 18 17 18 20 20 20 21 23 27 21 3 2 2 1 5 4 1 0 1 2 2 2 1 2 3 3 2 1 3 2 2 3 1 4 5 9 8 7 9 13 14 14 15 12 15 14 12 10 10 9 15 15
17 15 18 17 18 20 19 18 19 21 10 3 3 2 3 8 1 1 1 1 1 2 2 2 3 2 2 2 2 3 2 2 2 2 2 2 3 4 6 11 11 13 16 19 18 16 13 19 15 13 11 10 13 15
16 16 18 17 19 19 18 18 18 4 3 4 5 5 2 2 1 2 2 2 3 2 1 2 3 3 1 2 2 2 2 2 4 1 2 3 3 8 10 10 8 9 9 10 7 12 11 13 17 18 14 12 13 14
17 17 19 17 18 19 16 18 18 16 12 2 2 2 1 3 2 2 2 1 3 1 1 1 2 2 1 2 2 2 3 3 1 2 3 2 4 6 8 7 5 9 9 8 9 12 15 17 17 18 15 12 15 14
16 18 16 17 19 16 17 19 17 8 3 2 2 4 3 4 2 2 2 3 4 2 2 2 1 1 2 2 2 2 3 1 3 2 3 3 3 7 7 7 9 12 15 16 16 18 18 18 16 15 15 13 15 14
15 16 18 17 11 16 19 20 17 1 2 2 2 3 3 2 3 4 2 2 2 1 2 1 1 1 2 1 2 2 4 3 2 2 2 2 3 7 8 8 9 10 11 13 15 16 17 17 16 15 12 11 14 12
14 15 4 9 18 20 21 14 1 2 0 2 2 1 3 1 3 3 2 1 3 1 2 1 2 1 3 2 1 2 2 1 3 2 1 2 5 7 6 7 8 8 10 10 11 12 11 14 16 13 11 10 11 13
11 3 8 18 20 21 18 1 2 1 3 2 2 2 2 3 2 1 1 2 2 2 2 1 1 2 1 1 1 2 2 3 3 1 2 3 5 7 8 8 9 10 10 10 12 12 13 12 12 14 14 8 10 10
3 5 14 16 13 6 2 1 1 1 3 1 2 3 2 2 2 1 2 2 2 2 1 2 1 3 2 4 3 4 2 2 3 2 3 4 6 8 8 9 8 11 13 11 12 12 11 11 11 9 12 11 11 10
6 7 14 17 8 2 2 3 2 1 3 2 1 1 1 2 2 1 2 3 1 1 2 2 4 3 3 3 7 9 5 2 2 2 4 6 6 8 9 8 9 11 11 10 10 7 6 8 8 8 8 7 8 7
15 15 15 11 4 2 2 3 0 1 2 3 0 1 1 2 1 3 5 5 3 2 5 4 3 3 3 5 6 7 6 2 2 3 4 4 4 7 7 6 6 8 8 8 8 9 8 7 5 5 5 6 8 6
6 3 4 2 2 2 2 1 2 2 1 1 1 0 1 2 3 3 3 4 4 3 3 2 4 5 6 5 6 7 7 7 1 1 3 3 3 5 5 5 6 5 5 5 6 6 6 4 4 5 6 5 5 5
3 6 1 0 1 2 1 2 2 1 1 2 1 2 2 2 2 2 2 5 3 2 2 3 5 5 6 10 9 9 11 11 5 3 6 7 4 4 4 2 4 5 5 4 4 5 5 3 4 5 6 6 6 6
5 0 1 1 2 2 4 1 1 1 2 2 1 2 2 2 2 2 3 2 2 2 3 3 5 5 5 7 8 12 12 12 7 6 6 2 5 5 4 4 4 4 4 2 3 5 5 6 6 6 6 6 6 5
1 1 1 2 3 3 2 2 1 2 3 2 2 2 2 1 2 3 2 1 2 3 4 6 5 4 4 8 7 8 8 7 6 7 8 6 2 3 4 4 4 3 3 4 4 5 5 4 7 6 6 6 6 5
2 3 3 3 1 2 3 3 3 3 2 1 3 3 2 2 3 3 1 2 2 2 3 3 3 4 4 4 5 6 9 6 5 6 8 7 5 3 1 3 3 3 5 6 4 6 5 5 5 7 6 6 6 6
2 3 4 4 2 3 3 2 2 3 2 2 1 2 2 3 4 2 2 3 2 2 2 0 0 2 2 3 2 5 6 6 4 5 7 7 7 5 4 2 3 2 4 1 8 8 8 7 5 8 8 7 7 7
3 3 2 1 0 4 3 3 2 4 3 2 2 2 3 3 2 3 1 1 2 2 2 1 2 2 1 3 2 3 4 4 5 4 3 5 7 8 8 7 8 5 5 4 5 9 10 9 8 6 7 6 5 5
2 2 4 1 3 2 4 2 2 2 3 1 3 2 5 7 4 2 3 2 3 2 3 4 4 3 3 3 4 4 3 4 3 1 1 6 8 9 10 7 7 13 8 6 4 6 8 9 9 6 8 6 3 3
1 1 3 4 3 3 2 3 3 2 1 2 4 2 3 1 2 1 1 3 2 4 3 3 2 2 3 4 5 6 6 5 5 8 8 6 6 7 9 8 8 8 8 8 11 6 7 8 8 7 7 7 4 4
1 1 3 2 3 1 2 2 2 3 2 2 3 2 2 3 1 1 2 3 3 3 3 2 1 3 1 3 2 5 5 4 4 3 3 2 3 5 6 7 7 8 7 8 8 8 10 8 8 4 5 4 4 4
2 2 3 3 2 1 2 2 1 2 3 3 2 3 3 2 3 2 2 2 4 4 4 3 3 2 4 2 2 2 3 3 4 5 3 1 2 4 5 6 5 5 6 7 8 8 8 8 6 6 5 5 6 6
3 2 4 3 1 3 3 3 1 2 4 3 2 2 3 3 1 2 1 3 3 3 2 4 4 2 3 1 1 1 2 2 1 1 4 3 3 3 3 4 4 5 6 6 7 7 8 8 6 6 6 7 5 5
3 3 3 3 2 3 2 4 4 2 4 2 2 2 2 4 4 3 1 1 3 4 4 4 3 3 4 4 3 2 2 2 3 3 3 3 3 3 3 3 3 4 5 5 5 5 6 6 5 6 5 5 5 4
Wind_Direction
297 302 309 313 312 310 309 309 310 310 311 313 313 313 310 308 309 289 239 246 258 261 288 292 198 161 148 181 187 169 157 156 176 195 188 198 192 206 217 231 238 232 228 254 301 244 244 293 258 197 206 210 217 211
295 300 303 306 313 314 314 312 312 313 316 316 316 316 314 328 317 197 245 237 256 271 293 297 1 24 163 180 170 189 169 149 179 158 195 129 240 240 207 238 217 240 225 235 210 256 268 296 310 291 212 212 220 185
293 298 303 305 311 314 315 316 316 321 322 319 320 319 319 327 322 204 237 270 6 327 312 356 6 344 28 48 89 143 267 167 176 171 168 192 230 145 228 230 223 238 238 230 214 232 265 276 284 286 298 260 194 174
295 295 301 306 308 310 312 316 318 321 322 321 321 319 321 324 310 210 220 279 88 290 35 337 306 17 9 49 57 86 131 92 104 110 162 198 192 168 238 252 206 220 196 230 251 272 264 260 261 271 288 295 25 160
299 294 300 304 309 314 315 314 317 319 321 320 323 321 327 328 291 129 229 285 224 155 309 330 285 78 73 109 111 92 113 113 115 153 220 225 211 123 223 245 237 194 224 220 246 243 253 260 258 248 268 251 190 156
298 297 300 307 313 312 314 315 315 319 320 318 322 322 325 333 336 84 356 331 338 110 104 253 312 341 52 61 65 101 122 122 169 183 216 221 209 161 209 248 252 224 222 230 247 200 229 272 229 196 230 218 252 156
298 295 304 309 315 313 314 315 314 319 319 317 320 318 303 336 342 122 195 271 314 89 107 297 290 251 146 111 177 192 182 202 205 220 231 221 193 184 241 250 251 253 227 226 221 198 194 155 246 138 130 113 105 93
299 294 303 312 312 312 316 315 315 317 321 319 319 311 231 269 121 285 250 324 214 109 225 225 256 184 176 178 212 179 204 185 203 234 214 213 193 218 249 245 243 239 233 207 170 107 108 97 97 130 119 109 99 103
300 299 305 313 308 316 313 315 316 319 323 321 319 310 38 98 259 247 198 102 42 151 228 178 186 240 165 210 211 211 212 228 196 211 219 193 197 223 231 230 237 228 209 185 120 123 132 125 132 116 100 112 114 105
304 300 307 310 317 314 311 316 317 322 326 319 355 38 356 296 219 135 293 253 209 211 244 245 172 230 173 183 213 234 207 236 250 232 217 229 249 252 247 254 258 225 206 158 140 148 140 136 129 106 116 122 122 128
305 307 308 314 315 310 314 315 320 332 338 12 12 353 283 311 326 6 298 225 206 247 219 243 195 200 213 199 239 202 238 238 251 208 247 246 274 257 295 302 239 234 207 197 199 172 175 143 130 127 122 114 116 118
305 307 307 310 314 313 310 314 325 350 285 260 284 286 269 252 239 261 237 274 223 255 248 173 234 199 240 184 218 216 254 234 254 109 261 263 269 318 308 304 221 194 181 184 172 152 138 138 139 136 136 117 103 103
305 305 306 312 315 307 312 319 320 314 309 265 195 239 286 292 358 202 311 60 336 308 241 258 294 180 336 241 249 234 252 238 341 342 248 259 317 346 340 341 236 151 156 135 140 142 142 140 130 123 116 118 114 106
303 304 310 311 308 301 315 319 317 321 288 244 216 295 161 302 259 262 210 218 252 233 214 185 258 177 229 219 214 232 256 340 276 264 265 327 345 20 12 25 39 94 102 103 103 105 104 104 108 111 113 121 112 109
303 309 306 303 305 321 320 318 312 215 188 239 126 236 232 243 252 255 263 303 277 253 136 22 333 206 258 283 232 1 349 272 269 309 339 16 27 50 27 48 65 68 81 92 100 103 108 109 101 92 85 107 115 112
312 314 287 338 332 324 321 319 330 103 346 203 218 302 285 356 308 356 324 342 339 19 15 68 272 264 267 224 230 238 262 265 329 350 32 66 74 79 58 52 53 67 76 83 89 89 93 100 108 106 100 102 104 112
309 237 298 315 316 317 315 281 42 242 234 213 257 199 174 260 257 278 289 290 333 146 223 55 9 246 2 340 290 331 359 341 341 11 21 54 104 88 90 92 98 95 91 100 100 93 92 100 111 112 107 97 98 99
246 273 295 302 312 319 295 74 87 206 226 248 124 265 237 250 271 304 277 279 20 347 62 2 19 11 12 350 3 8 30 2 17 55 76 70 93 88 86 90 94 105 103 98 98 102 106 113 109 110 116 120 116 111
278 284 287 297 301 310 327 301 131 221 232 232 251 277 226 234 228 275 313 316 201 351 28 34 48 32 355 13 326 320 312 19 14 17 58 62 78 90 96 88 96 93 93 101 105 100 95 103 114 121 123 131 123 125
296 292 283 282 155 100 331 279 11 215 229 239 58 310 225 218 261 91 31 6 28 49 42 44 33 333 303 308 330 311 310 32 54 61 51 53 58 76 68 88 92 98 97 97 95 102 97 96 95 114 124 126 117 108
308 262 321 138 143 149 220 278 301 212 213 187 241 73 292 16 27 32 27 354 55 30 56 27 337 337 15 358 348 343 343 343 283 164 144 108 75 102 94 92 93 96 100 105 109 103 97 112 127 120 105 85 84 96
262 306 291 1 96 346 292 230 220 263 141 239 21 72 51 45 37 27 34 44 56 13 355 321 334 353 358 7 357 3 350 344 15 61 99 115 118 111 108 92 95 102 102 106 104 111 119 121 112 108 107 106 105 108
292 238 253 209 53 51 253 116 168 166 104 287 49 69 36 66 69 82 67 65 76 352 334 335 345 7 6 356 4 15 10 7 17 13 0 89 120 126 129 121 114 109 108 78 108 117 118 116 111 109 113 115 117 115
249 234 187 227 176 240 351 1 36 69 27 36 55 66 35 69 88 58 74 13 284 341 358 354 5 353 2 21 18 14 360 2 17 11 8 2 88 131 152 150 144 137 131 132 121 120 120 118 123 119 121 123 125 129
105 262 127 262 273 74 56 28 9 62 81 143 73 345 321 31 67 58 150 269 337 329 329 345 13 29 27 6 3 1 357 5 30 18 5 7 359 338 137 111 103 114 134 128 131 138 138 135 137 139 137 139 146 147
196 238 157 199 259 133 175 106 142 156 104 51 245 313 34 76 66 225 242 216 225 243 276 322 80 22 21 5 336 0 357 356 18 46 17 8 20 23 354 323 136 90 26 159 167 155 155 152 146 150 151 156 158 148
204 247 193 210 51 105 63 44 85 91 96 146 242 45 67 74 236 250 259 207 144 231 209 189 92 74 4 340 338 346 340 3 39 49 25 20 31 33 34 33 20 334 314 282 172 165 161 159 159 158 154 153 162 154
207 129 152 267 68 51 115 73 97 156 207 214 82 71 140 176 206 221 197 223 152 125 89 77 65 57 34 2 7 360 348 340 340 328 1 40 35 30 22 16 10 4 6 0 186 165 162 159 158 155 154 150 146 147
96 63 92 41 57 49 80 141 187 240 205 102 114 164 200 184 209 163 217 159 126 100 92 107 9 24 35 39 35 28 17 15 48 54 46 30 11 11 0 6 10 9 7 11 28 56 140 143 144 147 144 135 130 119
170 107 93 67 82 84 256 158 207 250 2 118 111 89 53 9 336 248 95 101 116 141 167 168 159 94 111 79 31 23 16 18 41 95 90 37 337 320 350 3 7 9 8 14 17 26 46 77 95 94 107 114 123 123
121 92 84 66 91 265 252 274 324 76 35 50 4 103 155 214 334 357 96 112 112 117 105 83 51 24 111 95 110 81 8 340 22 48 64 64 4 9 3 360 356 0 14 21 24 27 33 43 50 68 87 107 130 136
47 79 118 105 87 316 24 59 47 68 354 49 354 33 20 51 40 289 255 104 87 111 193 147 128 212 214 227 193 221 138 139 132 81 71 61 28 354 355 359 1 10 26 31 29 30 33 39 44 47 50 52 67 91
70 62 69 91 58 9 328 79 22 22 27 43 4 169 182 151 188 240 313 129 170 178 178 179 176 140 161 175 165 175 168 163 169 131 114 99 68 23 13 11 16 26 43 42 33 29 33 38 41 46 56 60 58 80